Location: Vienna
(48.2082°N, 16.3738°E)
Time: 09:34:35
(UTC+02:00)

ISS - Pass Details

Date: 18 July 2018
Orbit: 402 x 408 km, 51.6° (Epoch: 23 July)

Event Time Altitude Azimuth Distance (km) Brightness Sun altitude
Exits shadow 02:22:37 - 283° (WNW) 2,123 -0.2 -18.3°
Reaches altitude 10° 02:24:16 10° 289° (WNW) 1,470 -1.0 -18.2°
Maximum altitude 02:27:26 44° 3° (N) 577 -2.6 -18.1°
Drops below altitude 10° 02:30:37 10° 78° (ENE) 1,472 -0.5 -17.9°
Sets 02:32:46 0° 85° (E) 2,333 0.4 -17.7°
